Skagway, AK

9:55 PM AKST on February 20, 2017 (GMT -0900)
Skagway

Weather History for PAGY - November, 2011

Change the Weather History Date:

Tuesday, November 1, 2011

  Actual Average Record
Temperature  
Mean Temperature 41 °F -  
Max Temperature 45 °F 40 °F 54 °F (1969)
Min Temperature 37 °F 31 °F 17 °F (1984)
Degree Days  
Heating Degree Days 24    
Moisture  
Dew Point 37 °F    
Average Humidity 78    
Maximum Humidity 89    
Minimum Humidity 67    
Precipitation  
Precipitation 0.42 in - - ()
Sea Level Pressure  
Sea Level Pressure 29.53 in    
Wind  
Wind Speed 32 mph (SSW)    
Max Wind Speed 39 mph    
Max Gust Speed 53 mph    
Visibility 8 miles    
Events Rain    
Averages and records for this station are not official NWS values.
T = Trace of Precipitation, MM = Missing Value Source: NWS Daily Summary

Daily Weather History Graph

Daily Weather History Graph

Search for Another Location

Airport or City:

Trip Planner

Search our weather history database for the weather conditions in past years. The results will help you decide how hot, cold, wet, or windy it might be!

Date:

Astronomy

Nov. 01, 2011 Rise Set
Actual Time 8:21 AM AKDT 5:07 PM AKDT
Civil Twilight 7:36 AM AKDT 5:51 PM AKDT
Nautical Twilight 6:48 AM AKDT 6:40 PM AKDT
Astronomical Twilight 6:00 AM AKDT 7:27 PM AKDT
Moon 2:26 PM AKDT (11/1) 10:49 PM AKDT (11/1)
Length of Visible Light 10h 15m
Length of Day
8h 46m
Waxing Crescent, 41% of the Moon is Illuminated
Nov 1
Waxing Crescent
Nov 2
First Quarter
Nov 10
Full
Nov 18
Last Quarter
Nov 24
New

Hourly Weather History & Observations

Time (AKDT) Temp. Windchill Dew Point Humidity Pressure Visibility Wind Dir Wind Speed Gust Speed Precip Events Conditions
12:53 AM 45.0 °F 34.1 °F 37.9 °F 76% 29.83 in 10.0 mi SSW 38.0 mph 52.9 mph N/A   Overcast
1:53 AM 45.0 °F 34.1 °F 37.0 °F 74% 29.82 in 10.0 mi SSW 38.0 mph 51.8 mph 0.02 in   Overcast
2:53 AM 45.0 °F 34.0 °F 37.0 °F 74% 29.80 in 10.0 mi SSW 39.1 mph 49.5 mph N/A   Overcast
3:53 AM 45.0 °F 34.0 °F 37.0 °F 74% 29.78 in 10.0 mi SSW 39.1 mph 49.5 mph N/A   Overcast
4:53 AM 44.6 °F 33.8 °F 37.4 °F 76% 29.73 in 10.0 mi SSW 36.8 mph 47.2 mph N/A   Overcast
5:53 AM 44.1 °F 33.5 °F 37.9 °F 79% 29.70 in 8.0 mi SSW 33.4 mph 48.3 mph N/A   Overcast
6:53 AM 44.1 °F 33.2 °F 37.9 °F 79% 29.65 in 10.0 mi SSW 35.7 mph 46.0 mph N/A   Overcast
7:53 AM 43.0 °F 31.7 °F 37.9 °F 82% 29.61 in 8.0 mi SSW 35.7 mph 47.2 mph 0.00 in Rain Light Rain
8:53 AM 43.0 °F 32.0 °F 37.9 °F 82% 29.58 in 8.0 mi SSW 33.4 mph 46.0 mph 0.00 in Rain Light Rain
9:53 AM 43.0 °F 32.7 °F 37.9 °F 82% 29.56 in 6.0 mi SSW 28.8 mph 50.6 mph 0.00 in   Haze
10:04 AM 42.8 °F 31.9 °F 37.4 °F 81% 29.55 in 7.0 mi SSW 32.2 mph 43.7 mph 0.00 in   Overcast
10:15 AM 44.6 °F 34.7 °F 37.4 °F 76% 29.54 in 9.0 mi SSW 29.9 mph 41.4 mph 0.00 in   Overcast
10:41 AM 44.6 °F 34.1 °F 37.4 °F 76% 29.52 in 9.0 mi SSW 34.5 mph 42.6 mph 0.00 in   Overcast
10:53 AM 44.6 °F 34.2 °F 37.4 °F 76% 29.51 in 9.0 mi SSW 33.4 mph 43.7 mph N/A   Overcast
11:53 AM 43.0 °F 32.2 °F 37.9 °F 82% 29.48 in 5.0 mi SSW 32.2 mph 40.3 mph 0.01 in Rain Light Rain
12:53 PM 43.0 °F 35.4 °F 37.9 °F 82% 29.44 in 5.0 mi SSW 16.1 mph 29.9 mph 0.04 in Rain Light Rain
1:53 PM 42.1 °F 33.1 °F 39.0 °F 89% 29.40 in 4.0 mi SSW 20.7 mph 32.2 mph 0.09 in Rain Rain
2:53 PM 42.1 °F 33.9 °F 37.9 °F 85% 29.37 in 3.0 mi SSW 17.3 mph 31.1 mph 0.13 in Rain Rain
3:53 PM 42.1 °F 31.7 °F 37.9 °F 85% 29.36 in 5.0 mi SSW 27.6 mph 36.8 mph 0.09 in Rain Light Rain
4:53 PM 42.1 °F 31.1 °F 37.0 °F 82% 29.35 in 9.0 mi SSW 31.1 mph 47.2 mph 0.04 in Rain Light Rain
5:09 PM 42.8 °F 32.5 °F 35.6 °F 76% 29.32 in 10.0 mi SSW 28.8 mph 39.1 mph 0.00 in   Overcast
5:53 PM 43.0 °F 32.5 °F 36.0 °F 76% 29.34 in 10.0 mi SSW 29.9 mph 43.7 mph 0.00 in   Overcast
6:53 PM 43.0 °F 32.2 °F 37.0 °F 80% 29.37 in 10.0 mi SSW 32.2 mph 42.6 mph 0.00 in   Overcast
7:53 PM 43.0 °F 33.3 °F 34.0 °F 71% 29.40 in 10.0 mi SSW 25.3 mph 33.4 mph N/A   Partly Cloudy
8:53 PM 42.1 °F 35.7 °F 33.1 °F 70% 29.43 in 10.0 mi South 11.5 mph 21.9 mph N/A   Partly Cloudy
9:53 PM 42.1 °F 35.7 °F 32.0 °F 67% 29.47 in 10.0 mi South 11.5 mph 18.4 mph N/A   Mostly Cloudy
10:53 PM 37.9 °F 34.4 °F 33.1 °F 83% 29.50 in 10.0 mi ENE 4.6 mph - N/A   Mostly Cloudy
11:53 PM 41.0 °F 34.3 °F 33.1 °F 73% 29.51 in 10.0 mi SSW 11.5 mph 19.6 mph N/A   Overcast